When you browse on this site, cookies collect data to enhance your experience and personalize the content and advertising you see.
Visit our Privacy Policy to learn more. By continuing to use the site, you agree to this use of cookies and data.
  • In Hungary
  • List of Countries
  • For 7 days
  • Water Temperature
  • Satellite Maps
  • Weather Map
  • News
  • Weather Widgets
  • user-avatar
    Login

    Hourly Weather Bad Zwischenahn

    Today, 23 February, Saturday

    Time Temperature Precipitation Wind Pressure Humidity
    00:00 0°C° 0 mm 4 mps 779 mmHg 84%
    01:00 +1°C° 0 mm 3 mps 780 mmHg 89%
    02:00 +1°C° 0 mm 3 mps 780 mmHg 89%
    03:00 +1°C° 0 mm 3 mps 779 mmHg 89%
    04:00 0°C° 0 mm 3 mps 779 mmHg 89%
    05:00 0°C° 0 mm 3 mps 779 mmHg 89%
    06:00 0°C° 0 mm 3 mps 779 mmHg 89%
    07:00 -1°C° 0 mm 3 mps 780 mmHg 89%
    08:00 0°C° 0 mm 3 mps 779 mmHg 82%
    09:00 0°C° 0 mm 4 mps 779 mmHg 75%
    10:00 +1°C° 0 mm 4 mps 779 mmHg 68%
    11:00 +4°C° 0 mm 4 mps 779 mmHg 64%
    12:00 +5°C° 0 mm 4 mps 778 mmHg 59%
    13:00 +7°C° 0 mm 4 mps 778 mmHg 55%
    14:00 +8°C° 0 mm 3 mps 778 mmHg 55%
    15:00 +9°C° 0 mm 3 mps 778 mmHg 55%
    16:00 +9°C° 0 mm 3 mps 777 mmHg 54%
    17:00 +7°C° 0 mm 3 mps 777 mmHg 58%
    18:00 +5°C° 0 mm 3 mps 777 mmHg 61%
    19:00 +5°C° 0 mm 2 mps 777 mmHg 65%
    20:00 +3°C° 0 mm 3 mps 777 mmHg 63%
    21:00 +3°C° 0 mm 3 mps 777 mmHg 62%
    22:00 +3°C° 0 mm 3 mps 778 mmHg 61%
    23:00 +3°C° 0 mm 2 mps 778 mmHg 62%

    Tomorrow, 24 February, Sunday

    Time Temperature Precipitation Wind Pressure Humidity
    00:00 +3°C° 0 mm 2 mps 778 mmHg 62%
    01:00 +3°C° 0 mm 2 mps 778 mmHg 63%
    02:00 +3°C° 0 mm 2 mps 778 mmHg 64%
    03:00 +3°C° 0 mm 2 mps 778 mmHg 65%
    04:00 +4°C° 0 mm 1 mps 777 mmHg 66%
    05:00 +4°C° 0 mm 1 mps 777 mmHg 66%
    06:00 +3°C° 0 mm 1 mps 777 mmHg 66%
    07:00 +3°C° 0 mm 1 mps 777 mmHg 66%
    08:00 +5°C° 0 mm 1 mps 778 mmHg 62%
    09:00 +6°C° 0 mm 1 mps 778 mmHg 59%
    10:00 +7°C° 0 mm 1 mps 778 mmHg 55%
    11:00 +9°C° 0 mm 1 mps 778 mmHg 51%
    12:00 +10°C° 0 mm 1 mps 778 mmHg 46%
    13:00 +12°C° 0 mm 1 mps 778 mmHg 42%
    14:00 +12°C° 0 mm 1 mps 778 mmHg 44%
    15:00 +12°C° 0 mm 1 mps 778 mmHg 45%
    16:00 +13°C° 0 mm 1 mps 778 mmHg 47%
    17:00 +11°C° 0 mm 1 mps 778 mmHg 49%
    18:00 +8°C° 0 mm 0 mps 778 mmHg 52%
    19:00 +6°C° 0 mm 0 mps 778 mmHg 54%
    20:00 +6°C° 0 mm 0 mps 778 mmHg 55%
    21:00 +6°C° 0 mm 0 mps 778 mmHg 55%
    22:00 +5°C° 0 mm 0 mps 778 mmHg 56%
    23:00 +5°C° 0 mm 0 mps 778 mmHg 57%

    Day after tomorrow, 25 February, Monday

    Time Temperature Precipitation Wind Pressure Humidity
    00:00 +4°C° 0 mm 0 mps 778 mmHg 57%
    01:00 +4°C° 0 mm 0 mps 778 mmHg 58%
    02:00 +4°C° 0 mm 0 mps 778 mmHg 58%
    03:00 +4°C° 0 mm 0 mps 778 mmHg 57%
    04:00 +5°C° 0 mm 1 mps 778 mmHg 57%
    05:00 +4°C° 0 mm 1 mps 778 mmHg 57%
    06:00 +4°C° 0 mm 1 mps 778 mmHg 57%
    07:00 +4°C° 0 mm 1 mps 778 mmHg 57%
    08:00 +5°C° 0 mm 1 mps 779 mmHg 56%
    09:00 +6°C° 0 mm 0 mps 779 mmHg 55%
    10:00 +7°C° 0 mm 0 mps 779 mmHg 53%
    11:00 +10°C° 0 mm 1 mps 779 mmHg 50%
    12:00 +11°C° 0 mm 1 mps 778 mmHg 47%
    13:00 +13°C° 0 mm 2 mps 778 mmHg 44%
    14:00 +13°C° 0 mm 2 mps 778 mmHg 47%
    15:00 +13°C° 0 mm 1 mps 778 mmHg 50%
    16:00 +13°C° 0 mm 1 mps 778 mmHg 52%
    17:00 +11°C° 0 mm 1 mps 778 mmHg 57%
    18:00 +9°C° 0 mm 1 mps 778 mmHg 61%
    19:00 +7°C° 0 mm 1 mps 778 mmHg 65%
    20:00 +7°C° 0 mm 1 mps 777 mmHg 65%
    21:00 +5°C° 0 mm 0 mps 777 mmHg 65%
    22:00 +5°C° 0 mm 0 mps 777 mmHg 65%
    23:00 +5°C° 0 mm 0 mps 777 mmHg 64%

    26 February, Tuesday

    Time Temperature Precipitation Wind Pressure Humidity
    00:00 +5°C° 0 mm 1 mps 777 mmHg 64%
    01:00 +5°C° 0 mm 1 mps 777 mmHg 63%
    02:00 +5°C° 0 mm 1 mps 777 mmHg 63%
    03:00 +5°C° 0 mm 1 mps 776 mmHg 64%
    04:00 +5°C° 0 mm 1 mps 776 mmHg 64%
    05:00 +4°C° 0 mm 1 mps 776 mmHg 65%
    06:00 +4°C° 0 mm 1 mps 776 mmHg 66%
    07:00 +4°C° 0 mm 1 mps 776 mmHg 66%
    08:00 +5°C° 0 mm 1 mps 776 mmHg 64%
    09:00 +7°C° 0 mm 1 mps 776 mmHg 61%
    10:00 +9°C° 0 mm 1 mps 776 mmHg 59%
    11:00 +9°C° 0 mm 2 mps 776 mmHg 55%
    12:00 +12°C° 0 mm 2 mps 776 mmHg 52%
    13:00 +13°C° 0 mm 2 mps 776 mmHg 49%
    14:00 +14°C° 0 mm 2 mps 775 mmHg 52%
    15:00 +14°C° 0 mm 2 mps 775 mmHg 54%
    16:00 +14°C° 0 mm 2 mps 775 mmHg 57%
    17:00 +12°C° 0 mm 1 mps 774 mmHg 62%
    18:00 +10°C° 0 mm 1 mps 774 mmHg 67%
    19:00 +8°C° 0 mm 1 mps 774 mmHg 72%
    20:00 +8°C° 0 mm 1 mps 774 mmHg 74%
    21:00 +7°C° 0 mm 1 mps 774 mmHg 76%
    22:00 +6°C° 0 mm 0 mps 774 mmHg 77%
    23:00 +7°C° 0 mm 1 mps 774 mmHg 78%

    27 February, Wednesday

    Time Temperature Precipitation Wind Pressure Humidity
    00:00 +7°C° 0 mm 1 mps 774 mmHg 78%
    01:00 +6°C° 0 mm 1 mps 773 mmHg 78%
    02:00 +6°C° 0 mm 1 mps 773 mmHg 78%
    03:00 +6°C° 0 mm 1 mps 773 mmHg 79%
    04:00 +6°C° 0 mm 1 mps 772 mmHg 79%
    05:00 +6°C° 0 mm 1 mps 772 mmHg 79%
    06:00 +6°C° 0 mm 1 mps 772 mmHg 80%
    07:00 +5°C° 0 mm 1 mps 771 mmHg 80%
    08:00 +7°C° 0 mm 1 mps 771 mmHg 76%
    09:00 +7°C° 0 mm 2 mps 771 mmHg 71%
    10:00 +9°C° 0 mm 2 mps 771 mmHg 67%
    11:00 +10°C° 0 mm 2 mps 770 mmHg 63%
    12:00 +12°C° 0 mm 2 mps 770 mmHg 59%
    13:00 +13°C° 0 mm 3 mps 769 mmHg 55%
    14:00 +14°C° 0 mm 2 mps 769 mmHg 56%
    15:00 +14°C° 0 mm 2 mps 768 mmHg 58%
    16:00 +15°C° 0 mm 2 mps 767 mmHg 59%
    17:00 +12°C° 0 mm 3 mps 767 mmHg 65%
    18:00 +10°C° 0 mm 3 mps 766 mmHg 72%
    19:00 +9°C° 0 mm 3 mps 766 mmHg 78%
    20:00 +8°C° 0 mm 3 mps 765 mmHg 81%
    21:00 +8°C° 0 mm 3 mps 765 mmHg 84%
    22:00 +6°C° 0 mm 4 mps 764 mmHg 87%
    23:00 +6°C° 0 mm 4 mps 764 mmHg 89%

    28 February, Thursday

    Time Temperature Precipitation Wind Pressure Humidity
    00:00 +5°C° 0 mm 4 mps 764 mmHg 91%
    01:00 +5°C° 0 mm 5 mps 763 mmHg 93%
    02:00 +6°C° 0 mm 5 mps 763 mmHg 93%
    03:00 +6°C° 0 mm 5 mps 762 mmHg 93%
    04:00 +7°C° 0 mm 6 mps 762 mmHg 94%
    05:00 +7°C° 0 mm 6 mps 762 mmHg 94%
    06:00 +5°C° 0 mm 6 mps 762 mmHg 93%
    07:00 +5°C° 0 mm 6 mps 761 mmHg 93%
    08:00 +7°C° 0 mm 6 mps 762 mmHg 90%
    09:00 +6°C° 0 mm 7 mps 762 mmHg 86%
    10:00 +8°C° 0 mm 7 mps 763 mmHg 82%
    11:00 +8°C° 0 mm 7 mps 763 mmHg 83%
    12:00 +8°C° 0 mm 7 mps 763 mmHg 83%
    13:00 +8°C° 0 mm 7 mps 764 mmHg 83%
    14:00 +8°C° 0 mm 7 mps 764 mmHg 80%
    15:00 +9°C° 0 mm 7 mps 764 mmHg 77%
    16:00 +9°C° 0 mm 6 mps 764 mmHg 74%
    17:00 +8°C° 0 mm 6 mps 764 mmHg 79%
    18:00 +8°C° 0 mm 6 mps 765 mmHg 83%
    19:00 +7°C° 0 mm 6 mps 765 mmHg 88%
    20:00 +6°C° 0.1 mm 7 mps 765 mmHg 87%
    21:00 +6°C° 0.1 mm 7 mps 765 mmHg 87%
    22:00 +6°C° 0.1 mm 7 mps 765 mmHg 87%
    23:00 +5°C° 0 mm 6 mps 765 mmHg 89%
    Show more